Wind_Speed
24 24 24 24 24 24 23 23 23 22 22 22 22 22 23 23 24 24 24 24 24 24 23 23 24 24 24 24 25 25 25 25 26 27 27 27 28 27
24 24 25 25 25 25 24 24 24 23 23 22 22 22 22 22 21 22 23 23 22 22 22 22 23 22 22 22 22 23 24 24 25 25 26 25 24 23
23 24 24 25 25 25 25 24 24 24 23 23 22 22 22 21 20 20 21 21 21 21 21 21 20 20 19 20 21 22 22 22 22 22 22 21 21 21
22 22 23 23 23 23 23 24 24 24 24 22 22 21 20 20 19 19 20 20 20 21 20 19 18 18 18 19 20 20 19 19 19 19 19 19 19 18
21 22 22 22 22 22 22 22 23 23 23 22 22 21 20 20 20 19 19 19 19 18 18 18 18 18 19 18 17 17 17 17 17 16 16 16 16 16
19 20 21 21 21 21 21 21 21 22 22 21 21 21 20 20 19 18 18 17 17 17 18 17 17 17 16 15 15 16 15 15 15 15 15 16 15 15
18 18 18 19 19 20 20 20 20 20 20 20 20 20 19 19 18 17 16 17 17 16 15 15 14 14 14 14 14 14 13 13 13 14 14 14 13 13
17 17 17 17 17 18 18 18 18 18 18 18 18 18 18 17 16 16 15 15 15 14 13 13 12 12 12 12 12 12 11 11 11 11 11 12 12 13
14 14 14 15 15 15 15 16 17 17 17 17 16 17 16 15 15 14 13 13 13 12 12 12 11 11 11 10 10 9 9 9 9 10 11 11 12 12
13 12 12 13 13 13 14 13 14 14 14 14 14 13 13 12 12 12 12 11 11 10 10 10 10 9 9 8 8 8 8 9 9 10 11 11 12 13
11 11 11 11 11 11 11 11 11 11 11 11 11 11 11 11 10 10 10 10 10 9 9 9 9 8 7 7 8 8 8 9 9 10 10 11 12 13
10 10 9 10 10 10 9 9 9 9 9 9 9 9 9 9 9 9 8 9 9 8 8 8 7 7 7 7 7 7 8 8 8 9 10 11 12 13
8 8 8 8 8 8 8 8 8 8 7 7 8 8 8 8 8 8 7 7 7 7 7 6 6 6 6 6 7 7 8 8 9 10 11 12 13 15
7 7 8 7 7 7 7 7 8 8 7 7 7 7 7 7 7 6 6 6 6 6 6 6 5 5 5 6 6 7 7 8 10 11 12 14 16 17
6 6 7 6 6 7 7 8 8 8 7 7 7 7 7 7 6 6 5 5 5 5 4 4 4 4 5 6 6 6 7 9 11 12 14 16 17 18
7 7 6 6 7 7 8 8 8 8 7 6 6 6 6 6 5 5 5 5 5 4 3 3 3 4 4 5 6 7 8 10 12 14 16 17 18 20
6 6 6 8 8 8 8 8 8 7 7 7 7 7 6 6 5 5 5 5 5 4 3 3 4 4 5 6 8 9 10 12 14 15 17 18 20 22
6 7 7 8 8 9 8 8 8 8 8 7 7 7 6 5 4 4 4 4 4 4 4 4 5 5 7 8 9 10 12 14 15 17 19 20 22 24
8 7 7 8 9 9 9 8 8 8 8 7 7 6 5 5 4 4 4 4 4 4 4 5 6 7 8 9 11 13 14 16 18 19 21 22 24 25
8 7 8 8 9 9 8 8 7 7 7 7 6 5 5 4 3 3 3 3 4 4 5 6 8 9 10 11 13 15 17 18 20 21 23 24 26 27
8 8 8 8 8 8 8 7 6 6 6 6 5 4 4 3 3 3 4 4 5 6 7 8 10 12 13 14 15 17 18 20 22 24 25 26 28 29
7 8 8 8 8 8 7 6 6 6 6 6 5 4 3 3 4 4 5 6 7 8 9 11 12 14 15 16 17 19 20 22 24 27 29 30 31 32
8 8 8 8 7 7 6 6 6 6 6 5 4 4 4 5 5 6 7 8 9 10 12 13 14 16 17 19 20 22 24 25 27 29 30 32 34 36
Wind_Direction
261 260 259 259 259 259 260 261 261 261 260 262 265 267 267 267 266 265 266 267 268 270 271 272 272 272 273 273 272 271 272 273 273 275 276 277 277 277
262 261 259 258 257 257 258 259 259 259 259 261 263 265 267 268 268 266 265 266 269 270 271 272 273 274 273 274 273 273 272 272 273 276 276 276 276 276
261 260 258 258 257 258 257 257 258 258 259 259 260 262 263 265 267 267 264 265 268 269 270 271 271 272 273 272 272 272 272 272 272 274 275 276 277 278
264 262 260 259 258 257 257 258 257 256 257 257 258 259 259 262 264 265 265 266 267 266 266 268 270 272 273 273 274 275 275 274 274 274 276 277 278 279
267 264 260 259 258 257 258 259 258 256 255 254 255 257 258 259 261 264 265 265 265 266 267 269 270 271 272 271 274 275 275 275 276 275 275 275 277 280
271 268 264 261 259 258 258 258 257 255 253 252 253 255 256 257 258 261 263 264 266 266 268 269 268 270 269 270 272 274 275 276 275 274 276 278 279 282
272 270 265 260 257 256 255 253 253 251 250 251 251 253 253 254 256 258 259 262 264 265 265 266 266 266 268 271 273 275 276 275 274 275 278 279 282 283
270 266 262 258 256 253 251 249 247 245 247 249 250 249 251 253 253 255 257 259 260 261 262 262 262 264 269 271 272 272 274 274 276 278 281 282 284 286
267 264 259 254 251 250 246 245 244 245 246 249 248 247 248 250 251 252 254 257 258 258 257 260 260 265 267 268 268 270 274 279 280 284 286 285 288 289
264 260 258 252 250 249 248 245 243 244 244 242 242 242 240 244 246 251 253 251 250 250 253 255 258 262 264 263 264 268 276 283 285 287 288 290 293 295
258 257 256 250 245 244 242 239 241 239 234 232 233 235 238 242 242 244 243 243 244 247 250 254 255 255 257 260 265 274 282 286 290 293 296 298 300 301
255 252 251 246 242 239 237 235 230 225 223 224 229 233 234 233 230 231 236 241 243 244 248 252 250 251 257 265 274 279 283 288 294 298 301 302 303 304
252 245 241 234 230 230 229 224 214 209 207 210 217 219 220 219 220 225 231 234 237 239 242 243 245 252 260 268 278 283 287 291 296 299 303 306 308 308
244 239 234 227 222 219 214 204 200 197 194 194 200 204 206 206 209 215 221 228 233 232 234 235 241 258 268 274 282 287 290 297 302 304 306 309 311 312
226 223 221 219 214 208 203 196 192 189 187 190 197 199 199 203 208 212 221 224 221 217 220 231 246 261 274 281 287 293 300 307 310 310 309 311 313 314
206 207 206 199 193 189 184 184 184 182 181 182 186 188 188 188 190 193 197 198 194 197 210 229 246 267 284 293 299 305 311 314 316 316 315 315 316 317
182 183 186 182 175 173 175 176 177 177 176 174 171 168 169 171 175 178 181 184 187 198 220 243 263 278 291 299 303 308 312 314 316 317 319 319 319 319
163 159 158 161 166 167 164 162 161 162 163 162 162 164 165 169 174 180 188 195 207 229 249 264 274 286 295 298 303 306 310 314 316 317 318 319 320 320
159 154 152 155 158 158 158 159 162 165 165 162 159 162 166 168 174 187 200 215 233 249 264 278 287 294 296 300 304 308 312 315 317 318 318 319 320 321
157 156 154 155 157 158 159 161 165 169 169 167 170 175 178 182 193 211 222 235 252 267 280 290 296 300 303 306 308 309 312 314 315 316 317 319 320 320
152 153 153 154 157 159 162 165 168 171 173 175 178 183 190 205 226 243 252 263 276 287 293 298 303 306 307 307 308 309 310 312 314 316 316 317 317 318
149 150 153 154 155 158 161 165 168 170 171 176 184 198 218 236 248 259 272 282 289 293 297 300 302 304 305 306 307 309 310 311 314 315 316 316 317 318
148 150 154 158 162 166 172 176 176 179 187 198 215 234 249 258 265 273 282 288 292 294 296 298 300 303 304 305 306 308 310 311 313 314 314 315 316 317
Height
5792 5792 5793 5793 5794 5794 5795 5796 5796 5797 5798 5798 5798 5798 5797 5798 5798 5798 5798 5797 5797 5797 5796 5796 5795 5794 5793 5792 5791 5790 5789 5788 5787 5786 5784 5782 5781 5779
5784 5784 5785 5785 5786 5787 5787 5788 5788 5790 5790 5791 5791 5791 5791 5791 5791 5791 5791 5791 5791 5790 5790 5789 5788 5787 5787 5786 5785 5784 5783 5782 5781 5779 5778 5776 5775 5773
5776 5776 5777 5777 5778 5778 5779 5780 5781 5782 5783 5784 5784 5784 5784 5785 5785 5785 5785 5785 5784 5784 5783 5783 5782 5781 5780 5779 5779 5778 5777 5775 5774 5773 5772 5771 5769 5768
5769 5769 5769 5769 5770 5771 5772 5772 5773 5774 5776 5777 5777 5777 5778 5779 5779 5779 5779 5779 5779 5778 5778 5777 5776 5776 5775 5774 5773 5772 5771 5770 5769 5768 5767 5766 5764 5763
5761 5761 5761 5762 5762 5763 5764 5765 5766 5767 5768 5770 5771 5771 5772 5773 5773 5773 5773 5773 5773 5773 5772 5772 5771 5771 5770 5769 5768 5768 5767 5765 5764 5763 5762 5761 5760 5759
5754 5754 5753 5754 5755 5756 5757 5758 5759 5760 5762 5763 5764 5765 5766 5767 5767 5768 5768 5768 5768 5768 5767 5767 5766 5766 5765 5765 5764 5763 5762 5761 5760 5759 5758 5757 5756 5755
5748 5747 5747 5747 5748 5749 5750 5751 5753 5754 5755 5757 5758 5759 5760 5761 5762 5762 5763 5763 5763 5762 5762 5762 5762 5762 5761 5761 5760 5759 5758 5757 5756 5755 5754 5753 5752 5751
5741 5741 5741 5741 5742 5743 5744 5745 5747 5749 5750 5751 5753 5754 5755 5756 5756 5757 5758 5758 5758 5758 5758 5758 5758 5758 5757 5757 5756 5755 5754 5754 5753 5752 5751 5750 5749 5747
5735 5735 5735 5736 5737 5738 5739 5740 5742 5743 5745 5747 5748 5749 5750 5751 5752 5753 5753 5754 5754 5754 5754 5754 5754 5754 5754 5754 5753 5752 5752 5751 5750 5749 5748 5747 5745 5744
5731 5731 5731 5732 5733 5733 5735 5736 5737 5739 5740 5742 5743 5745 5746 5747 5748 5749 5749 5750 5751 5751 5751 5751 5751 5751 5751 5751 5751 5750 5749 5748 5747 5746 5745 5744 5742 5741
5727 5727 5728 5728 5729 5730 5731 5733 5734 5735 5737 5738 5740 5741 5742 5744 5745 5746 5747 5747 5748 5749 5749 5749 5749 5749 5749 5749 5748 5748 5747 5746 5745 5744 5742 5741 5739 5737
5724 5724 5725 5726 5726 5728 5729 5730 5731 5733 5734 5736 5737 5739 5740 5741 5742 5743 5744 5745 5746 5746 5747 5747 5747 5747 5747 5747 5746 5745 5744 5743 5742 5741 5740 5738 5736 5733
5722 5722 5723 5724 5725 5726 5727 5728 5730 5731 5732 5734 5736 5737 5739 5740 5741 5742 5743 5743 5744 5744 5745 5745 5745 5745 5745 5745 5744 5743 5742 5741 5740 5738 5736 5734 5732 5730
5720 5721 5722 5723 5724 5725 5726 5727 5728 5730 5732 5733 5734 5736 5737 5739 5739 5740 5741 5742 5742 5743 5743 5743 5744 5743 5743 5743 5742 5741 5740 5739 5737 5735 5733 5731 5728 5726
5719 5720 5721 5722 5723 5724 5725 5727 5728 5730 5731 5733 5734 5735 5737 5738 5738 5739 5740 5741 5741 5742 5742 5742 5742 5742 5741 5741 5740 5739 5738 5736 5734 5732 5730 5727 5724 5721
5718 5719 5721 5722 5723 5724 5725 5727 5728 5730 5731 5732 5733 5735 5736 5737 5737 5738 5739 5740 5740 5741 5741 5741 5741 5740 5740 5739 5738 5736 5735 5733 5731 5729 5726 5723 5720 5717
5718 5719 5720 5722 5723 5725 5726 5727 5729 5730 5731 5732 5733 5735 5735 5736 5737 5738 5739 5739 5740 5740 5740 5740 5739 5739 5738 5737 5736 5734 5732 5730 5728 5725 5722 5719 5716 5712
5719 5720 5721 5722 5724 5725 5726 5728 5729 5731 5732 5733 5734 5735 5736 5736 5737 5738 5738 5739 5739 5739 5739 5738 5738 5737 5736 5734 5733 5731 5729 5727 5724 5721 5718 5715 5711 5707
5720 5721 5722 5724 5725 5726 5728 5729 5730 5731 5732 5733 5734 5735 5736 5737 5737 5738 5738 5738 5738 5738 5737 5737 5736 5735 5734 5732 5731 5728 5726 5723 5720 5717 5714 5710 5706 5701
5721 5722 5723 5725 5726 5727 5729 5730 5731 5732 5733 5734 5735 5736 5736 5737 5737 5737 5737 5737 5737 5736 5736 5735 5734 5732 5731 5729 5728 5725 5722 5719 5716 5712 5709 5704 5700 5695
5723 5724 5725 5726 5727 5729 5730 5731 5732 5733 5734 5735 5735 5736 5736 5737 5737 5737 5736 5736 5735 5735 5734 5733 5731 5729 5727 5726 5723 5721 5718 5714 5710 5706 5702 5698 5694 5689
5724 5726 5727 5728 5729 5730 5731 5732 5733 5733 5734 5735 5735 5736 5736 5736 5736 5735 5735 5735 5734 5732 5731 5730 5728 5726 5724 5722 5719 5716 5713 5710 5705 5700 5695 5690 5685 5680
5726 5727 5728 5729 5730 5731 5732 5733 5733 5734 5734 5735 5735 5735 5735 5735 5734 5734 5733 5732 5731 5730 5728 5727 5725 5722 5720 5717 5714 5711 5707 5704 5699 5695 5690 5683 5678 5672